EW9248 Weather Reports


Display with metric or nautical units.
time (UTC)temp
F
wind
direction
speed
MPH
gust
MPH
rain 1hr
in
rain 24hr
in
rain mn
in
humidity
%
barometer
mb
20260503225316 56 247 6.0 10.0 0.00 0.00 0.00 46 1010.4
20260503224316 56 270 3.0 4.0 0.00 0.00 0.00 47 1010.5
20260503223356 56 247 3.0 8.0 0.00 0.00 0.00 46 1010.5
20260503222336 57 292 4.0 7.0 0.00 0.00 0.00 45 1010.6
20260503221317 57 225 3.0 4.0 0.00 0.00 0.00 45 1010.6
20260503220356 57 247 5.0 9.0 0.00 0.00 0.00 44 1010.6
20260503215336 58 292 5.0 10.0 0.00 0.00 0.00 44 1010.7
20260503214357 57 225 2.0 3.0 0.00 0.00 0.00 45 1010.8
20260503213336 56 315 3.0 7.0 0.00 0.00 0.00 47 1010.6
20260503212336 56 315 4.0 5.0 0.00 0.00 0.00 46 1010.6
20260503211336 55 337 3.0 5.0 0.00 0.00 0.00 48 1010.7
20260503210316 55 247 2.0 3.0 0.00 0.00 0.00 49 1010.8
20260503205316 55 292 1.0 2.0 0.00 0.00 0.00 47 1010.9
20260503204315 55 292 2.0 3.0 0.00 0.00 0.00 50 1011.0
20260503203336 54 292 3.0 6.0 0.00 0.00 0.00 48 1011.1
20260503202335 54 315 4.0 6.0 0.00 0.00 0.00 48 1011.1
20260503201315 54 135 2.0 4.0 0.00 0.00 0.00 49 1011.2
20260503200357 55 225 9.0 14.0 0.00 0.00 0.00 47 1011.5
20260503195315 55 315 5.0 9.0 0.00 0.00 0.00 45 1011.2
20260503194315 56 292 3.0 5.0 0.00 0.00 0.00 44 1011.1
20260503193336 55 292 2.0 5.0 0.00 0.00 0.00 46 1011.2
20260503192416 55 0 3.0 6.0 0.00 0.00 0.00 41 1011.3
20260503191335 55 315 3.0 5.0 0.00 0.00 0.00 42 1011.3
20260503190416 56 292 5.0 9.0 0.00 0.00 0.00 41 1011.4
20260503185315 55 270 4.0 7.0 0.00 0.00 0.00 46 1011.5
20260503184335 55 270 4.0 9.0 0.00 0.00 0.00 45 1011.7
20260503183336 54 225 1.0 2.0 0.00 0.00 0.00 41 1011.6
20260503182335 56 22 2.0 6.0 0.00 0.00 0.00 42 1011.8
20260503181355 55 292 5.0 8.0 0.00 0.00 0.00 43 1012.0
20260503180335 55 270 2.0 4.0 0.00 0.00 0.00 43 1012.0
20260503175336 56 337 5.0 10.0 0.00 0.00 0.00 43 1012.2
20260503174315 55 315 6.0 10.0 0.00 0.00 0.00 40 1012.3
20260503173315 55 337 4.0 9.0 0.00 0.00 0.00 42 1012.4
20260503172335 54 292 6.0 9.0 0.00 0.00 0.00 45 1012.4
20260503171356 52 292 2.0 2.0 0.00 0.00 0.00 45 1012.7
20260503170315 52 337 3.0 6.0 0.00 0.00 0.00 43 1012.8
20260503150335 48 270 5.0 9.0 0.00 0.00 0.00 49 1014.0
20260503131316 44 315 4.0 6.0 0.00 0.00 0.00 57 1014.2
20260503130335 45 247 3.0 4.0 0.00 0.00 0.00 59 1014.3
20260503110317 37 0.0 1.0 0.00 0.00 0.00 81 1013.9
20260503090316 37 0.0 0.0 0.00 0.00 0.00 88 1013.1
20260503081417 37 0.0 0.0 0.00 0.00 0.00 89 1013.1
20260503080316 36 0.0 0.0 0.00 0.00 0.00 89 1013.2
20260503072316 36 0.0 0.0 0.00 0.00 0.00 88 1013.2
20260503071316 36 0.0 0.0 0.00 0.00 0.00 88 1013.2
20260503070337 36 0.0 0.0 0.00 0.00 0.00 88 1013.2
20260503060336 36 0.0 0.0 0.00 0.00 0.00 87 1013.4
20260503054316 37 0.0 0.0 0.00 0.00 0.00 87 1013.5
20260503053316 37 0.0 0.0 0.00 0.00 0.00 86 1013.6
20260503051416 37 0.0 0.0 0.00 0.00 0.00 85 1013.9
20260503050337 37 0.0 0.0 0.00 0.00 0.00 85 1014.0
20260503044316 38 0.0 0.0 0.00 0.00 0.00 84 1014.2
20260503043317 38 0.0 0.0 0.00 0.00 0.00 84 1014.3
20260503042336 38 0.0 0.0 0.00 0.00 0.00 84 1014.4
20260503040316 39 0.0 0.0 0.00 0.00 0.00 83 1014.4
20260503035417 39 0.0 0.0 0.00 0.00 0.00 82 1014.4
20260503034416 39 0.0 0.0 0.00 0.00 0.00 82 1014.4
20260503033316 39 0.0 0.0 0.00 0.00 0.00 80 1014.5
20260503032317 39 0.0 0.0 0.00 0.00 0.00 78 1014.4
20260503031316 40 0.0 0.0 0.00 0.00 0.00 77 1014.4
20260503030316 40 0.0 0.0 0.00 0.00 0.00 76 1014.5
20260503025357 40 0.0 0.0 0.00 0.01 0.00 75 1014.4
20260503024316 41 0.0 1.0 0.00 0.01 0.00 74 1014.5
20260503023316 41 0.0 2.0 0.00 0.01 0.00 74 1014.5
20260503022336 41 0.0 0.0 0.00 0.02 0.00 73 1014.5
20260503021417 41 0.0 1.0 0.00 0.02 0.00 72 1014.5
20260503020316 42 0.0 0.0 0.00 0.02 0.00 71 1014.5
20260503015316 42 0.0 2.0 0.00 0.03 0.00 71 1014.5
20260503014316 42 0.0 0.0 0.00 0.04 0.00 70 1014.6
20260503013417 42 0.0 0.0 0.00 0.04 0.00 69 1014.4
20260503012356 43 0 2.0 3.0 0.00 0.04 0.00 70 1014.4
20260503011356 43 0.0 1.0 0.00 0.04 0.00 69 1014.4
20260503010437 43 22 1.0 2.0 0.00 0.05 0.00 68 1014.2
20260503005336 43 0 2.0 2.0 0.00 0.05 0.00 67 1014.2
20260503004316 43 292 2.0 3.0 0.00 0.05 0.00 66 1014.0
20260503003457 44 337 1.0 2.0 0.00 0.05 0.00 64 1013.8
20260503002316 44 270 2.0 4.0 0.00 0.06 0.00 63 1013.8
20260503001316 44 22 2.0 4.0 0.00 0.06 0.00 63 1013.8
20260503000337 44 0.0 1.0 0.00 0.06 0.00 62 1013.8
20260502235416 45 67 2.0 3.0 0.00 0.06 0.00 61 1013.8
20260502234436 45 0.0 1.0 0.00 0.06 0.00 59 1013.6
20260502233317 45 45 1.0 3.0 0.00 0.07 0.00 59 1013.5
20260502232337 46 45 1.0 2.0 0.00 0.07 0.00 60 1013.4
20260502231336 46 0.0 0.0 0.00 0.08 0.00 58 1013.3
20260502230316 46 45 2.0 4.0 0.00 0.08 0.00 58 1013.3